| time (UTC) | temp C | wind direction | speed KPH | gust KPH | rain 1hr cm | rain 24hr cm | rain mn cm | humidity % | barometer mb |
| 20260508141644 | 22 | 347 | 3.2 | 12.9 | 0.00 | 0.00 | 0.00 | 68 | 1016.7 |
| 20260508141142 | 23 | 290 | 1.6 | 6.4 | 0.00 | 0.00 | 0.00 | 68 | 1016.9 |
| 20260508140639 | 23 | 19 | 3.2 | 8.0 | 0.00 | 0.00 | 0.00 | 67 | 1016.8 |
| 20260508140136 | 23 | 314 | 4.8 | 6.4 | 0.00 | 0.00 | 0.00 | 66 | 1016.9 |
| 20260508135632 | 23 | 346 | 4.8 | 9.7 | 0.00 | 0.00 | 0.00 | 67 | 1017.0 |
| 20260508135128 | 23 | 293 | 8.0 | 9.7 | 0.00 | 0.00 | 0.00 | 66 | 1017.0 |
| 20260508134625 | 23 | 41 | 3.2 | 9.7 | 0.00 | 0.00 | 0.00 | 65 | 1016.9 |
| 20260508134122 | 23 | 332 | 3.2 | 9.7 | 0.00 | 0.00 | 0.00 | 65 | 1016.8 |
| 20260508133618 | 24 | 330 | 4.8 | 9.7 | 0.00 | 0.00 | 0.00 | 66 | 1016.7 |
| 20260508133116 | 24 | 313 | 6.4 | 8.0 | 0.00 | 0.00 | 0.00 | 62 | 1017.0 |
| 20260508132613 | 24 | 304 | 6.4 | 12.9 | 0.00 | 0.00 | 0.00 | 61 | 1017.0 |
| 20260508132110 | 24 | 348 | 3.2 | 8.0 | 0.00 | 0.00 | 0.00 | 64 | 1016.9 |
| 20260508131606 | 25 | 323 | 8.0 | 11.3 | 0.00 | 0.00 | 0.00 | 63 | 1017.0 |
| 20260508131103 | 25 | 292 | 9.7 | 9.7 | 0.00 | 0.00 | 0.00 | 62 | 1017.0 |
| 20260508130559 | 24 | 31 | 3.2 | 16.1 | 0.00 | 0.00 | 0.00 | 62 | 1017.0 |
| 20260508130055 | 25 | 321 | 4.8 | 6.4 | 0.00 | 0.00 | 0.00 | 63 | 1017.0 |
| 20260508125551 | 25 | 334 | 6.4 | 6.4 | 0.00 | 0.00 | 0.00 | 62 | 1016.9 |
| 20260508125049 | 25 | 322 | 1.6 | 8.0 | 0.00 | 0.00 | 0.00 | 63 | 1017.1 |
| 20260508124548 | 25 | 337 | 3.2 | 11.3 | 0.00 | 0.00 | 0.00 | 62 | 1017.1 |
| 20260508124044 | 25 | 354 | 6.4 | 11.3 | 0.00 | 0.00 | 0.00 | 63 | 1017.3 |
| 20260508123542 | 25 | 202 | 3.2 | 4.8 | 0.00 | 0.00 | 0.00 | 61 | 1017.2 |
| 20260508123039 | 25 | 88 | 3.2 | 6.4 | 0.00 | 0.00 | 0.00 | 61 | 1017.3 |
| 20260508122536 | 25 | 309 | 1.6 | 9.7 | 0.00 | 0.00 | 0.00 | 64 | 1017.4 |
| 20260508122033 | 25 | 349 | 3.2 | 11.3 | 0.00 | 0.00 | 0.00 | 62 | 1017.4 |
| 20260508121531 | 25 | 325 | 3.2 | 8.0 | 0.00 | 0.00 | 0.00 | 63 | 1017.5 |
| 20260508121028 | 25 | 68 | 0.0 | 8.0 | 0.00 | 0.00 | 0.00 | 62 | 1017.4 |
| 20260508120525 | 25 | 324 | 4.8 | 8.0 | 0.00 | 0.00 | 0.00 | 61 | 1017.4 |
| 20260508120024 | 25 | 53 | 4.8 | 8.0 | 0.00 | 0.00 | 0.00 | 62 | 1017.6 |
| 20260508115521 | 25 | 295 | 9.7 | 12.9 | 0.00 | 0.00 | 0.00 | 64 | 1017.4 |
| 20260508115017 | 25 | 318 | 4.8 | 6.4 | 0.00 | 0.00 | 0.00 | 62 | 1017.5 |
| 20260508114515 | 25 | 356 | 6.4 | 11.3 | 0.00 | 0.00 | 0.00 | 63 | 1017.6 |
| 20260508114011 | 25 | 54 | 3.2 | 9.7 | 0.00 | 0.00 | 0.00 | 62 | 1017.6 |
| 20260508113508 | 25 | 333 | 3.2 | 9.7 | 0.00 | 0.00 | 0.00 | 62 | 1017.7 |
| 20260508113006 | 25 | 284 | 3.2 | 17.7 | 0.00 | 0.00 | 0.00 | 63 | 1017.5 |
| 20260508112502 | 25 | 342 | 4.8 | 9.7 | 0.00 | 0.00 | 0.00 | 63 | 1017.8 |
| 20260508111959 | 25 | 261 | 6.4 | 14.5 | 0.00 | 0.00 | 0.00 | 62 | 1017.7 |
| 20260508111456 | 24 | 302 | 6.4 | 14.5 | 0.00 | 0.00 | 0.00 | 63 | 1017.8 |
| 20260508110953 | 25 | 325 | 4.8 | 12.9 | 0.00 | 0.00 | 0.00 | 61 | 1017.9 |
| 20260508110451 | 25 | 316 | 3.2 | 9.7 | 0.00 | 0.00 | 0.00 | 62 | 1017.8 |
| 20260508105950 | 25 | 307 | 12.9 | 14.5 | 0.00 | 0.00 | 0.00 | 61 | 1017.9 |
| 20260508105447 | 25 | 315 | 6.4 | 14.5 | 0.00 | 0.00 | 0.00 | 62 | 1017.7 |
| 20260508104944 | 25 | 322 | 9.7 | 16.1 | 0.00 | 0.00 | 0.00 | 60 | 1017.8 |
| 20260508104442 | 25 | 349 | 4.8 | 11.3 | 0.00 | 0.00 | 0.00 | 61 | 1017.7 |
| 20260508103938 | 26 | 295 | 3.2 | 8.0 | 0.00 | 0.00 | 0.00 | 60 | 1017.6 |
| 20260508103435 | 25 | 327 | 1.6 | 8.0 | 0.00 | 0.00 | 0.00 | 61 | 1017.7 |
| 20260508102932 | 25 | 323 | 4.8 | 6.4 | 0.00 | 0.00 | 0.00 | 62 | 1017.7 |
| 20260508102431 | 25 | 336 | 4.8 | 9.7 | 0.00 | 0.00 | 0.00 | 62 | 1017.7 |
| 20260508101927 | 25 | 301 | 3.2 | 14.5 | 0.00 | 0.00 | 0.00 | 63 | 1017.9 |
| 20260508101425 | 25 | 328 | 4.8 | 12.9 | 0.00 | 0.00 | 0.00 | 63 | 1017.9 |
| 20260508100922 | 25 | 301 | 3.2 | 8.0 | 0.00 | 0.00 | 0.00 | 63 | 1018.0 |
| 20260508100421 | 25 | 307 | 3.2 | 8.0 | 0.00 | 0.00 | 0.00 | 63 | 1018.0 |
| 20260508095916 | 25 | 52 | 6.4 | 9.7 | 0.00 | 0.00 | 0.00 | 64 | 1017.9 |
| 20260508095415 | 25 | 309 | 9.7 | 9.7 | 0.00 | 0.00 | 0.00 | 63 | 1018.1 |
| 20260508094911 | 25 | 8 | 1.6 | 9.7 | 0.00 | 0.00 | 0.00 | 64 | 1018.0 |
| 20260508094408 | 25 | 347 | 3.2 | 14.5 | 0.00 | 0.00 | 0.00 | 64 | 1018.2 |
| 20260508093904 | 25 | 328 | 6.4 | 9.7 | 0.00 | 0.00 | 0.00 | 62 | 1018.1 |
| 20260508093402 | 25 | 331 | 8.0 | 8.0 | 0.00 | 0.00 | 0.00 | 63 | 1018.2 |
| 20260508092859 | 25 | 214 | 0.0 | 9.7 | 0.00 | 0.00 | 0.00 | 64 | 1018.6 |
| 20260508092357 | 25 | 337 | 3.2 | 9.7 | 0.00 | 0.00 | 0.00 | 62 | 1018.5 |
| 20260508091855 | 25 | 117 | 3.2 | 4.8 | 0.00 | 0.00 | 0.00 | 63 | 1018.5 |
| 20260508091351 | 24 | 315 | 6.4 | 12.9 | 0.00 | 0.00 | 0.00 | 64 | 1018.5 |
| 20260508090849 | 25 | 308 | 3.2 | 12.9 | 0.00 | 0.00 | 0.00 | 63 | 1018.7 |
| 20260508090348 | 25 | 8 | 3.2 | 11.3 | 0.00 | 0.00 | 0.00 | 61 | 1018.8 |
| 20260508085843 | 25 | 303 | 4.8 | 6.4 | 0.00 | 0.00 | 0.00 | 62 | 1018.5 |
| 20260508085340 | 26 | 186 | 6.4 | 8.0 | 0.00 | 0.00 | 0.00 | 60 | 1018.8 |
| 20260508084837 | 25 | 311 | 4.8 | 9.7 | 0.00 | 0.00 | 0.00 | 63 | 1018.6 |
| 20260508084333 | 26 | 333 | 0.0 | 8.0 | 0.00 | 0.00 | 0.00 | 61 | 1018.8 |
| 20260508083831 | 25 | 214 | 1.6 | 6.4 | 0.00 | 0.00 | 0.00 | 61 | 1018.8 |
| 20260508083329 | 25 | 285 | 3.2 | 8.0 | 0.00 | 0.00 | 0.00 | 62 | 1018.8 |
| 20260508082828 | 26 | 300 | 4.8 | 6.4 | 0.00 | 0.00 | 0.00 | 59 | 1018.8 |
| 20260508082326 | 25 | 49 | 3.2 | 6.4 | 0.00 | 0.00 | 0.00 | 60 | 1018.9 |
| 20260508081823 | 25 | 284 | 3.2 | 8.0 | 0.00 | 0.00 | 0.00 | 61 | 1018.9 |
| 20260508081320 | 25 | 322 | 3.2 | 4.8 | 0.00 | 0.00 | 0.00 | 61 | 1019.1 |
| 20260508080817 | 24 | 297 | 1.6 | 6.4 | 0.00 | 0.00 | 0.00 | 64 | 1019.2 |
| 20260508080315 | 23 | 295 | 4.8 | 6.4 | 0.00 | 0.00 | 0.00 | 64 | 1019.0 |
| 20260508075811 | 24 | 291 | 8.0 | 12.9 | 0.00 | 0.00 | 0.00 | 62 | 1019.3 |
| 20260508075309 | 24 | 338 | 4.8 | 14.5 | 0.00 | 0.00 | 0.00 | 63 | 1019.2 |
| 20260508074806 | 25 | 349 | 3.2 | 6.4 | 0.00 | 0.00 | 0.00 | 61 | 1019.3 |
| 20260508074303 | 25 | 303 | 4.8 | 6.4 | 0.00 | 0.00 | 0.00 | 61 | 1019.3 |
| 20260508073800 | 24 | 333 | 3.2 | 4.8 | 0.00 | 0.00 | 0.00 | 61 | 1019.1 |
| 20260508073258 | 23 | 332 | 3.2 | 12.9 | 0.00 | 0.00 | 0.00 | 63 | 1019.3 |
| 20260508072754 | 23 | 299 | 4.8 | 4.8 | 0.00 | 0.00 | 0.00 | 62 | 1019.4 |
| 20260508072251 | 23 | 324 | 3.2 | 9.7 | 0.00 | 0.00 | 0.00 | 62 | 1019.4 |
| 20260508071748 | 23 | 341 | 4.8 | 8.0 | 0.00 | 0.00 | 0.00 | 62 | 1019.3 |
| 20260508071247 | 23 | 306 | 6.4 | 8.0 | 0.00 | 0.00 | 0.00 | 62 | 1019.3 |
| 20260508070743 | 23 | 287 | 6.4 | 9.7 | 0.00 | 0.00 | 0.00 | 63 | 1019.1 |
| 20260508070242 | 23 | 338 | 4.8 | 6.4 | 0.00 | 0.00 | 0.00 | 63 | 1019.3 |
| 20260508065739 | 24 | 330 | 1.6 | 6.4 | 0.00 | 0.00 | 0.00 | 63 | 1019.3 |
| 20260508065237 | 23 | 325 | 0.0 | 3.2 | 0.00 | 0.00 | 0.00 | 63 | 1019.3 |
| 20260508064734 | 22 | 339 | 3.2 | 9.7 | 0.00 | 0.00 | 0.00 | 65 | 1019.4 |
| 20260508064232 | 23 | 293 | 3.2 | 6.4 | 0.00 | 0.00 | 0.00 | 62 | 1019.3 |
| 20260508063729 | 22 | 336 | 0.0 | 4.8 | 0.00 | 0.00 | 0.00 | 65 | 1019.4 |
| 20260508063227 | 22 | 318 | 4.8 | 8.0 | 0.00 | 0.00 | 0.00 | 65 | 1019.4 |
| 20260508062724 | 22 | 338 | 1.6 | 4.8 | 0.00 | 0.00 | 0.00 | 66 | 1019.3 |
| 20260508062222 | 21 | 321 | 0.0 | 3.2 | 0.00 | 0.00 | 0.00 | 69 | 1019.2 |
| 20260508061718 | 21 | 339 | 3.2 | 6.4 | 0.00 | 0.00 | 0.00 | 68 | 1019.5 |
| 20260508061215 | 21 | 293 | 4.8 | 6.4 | 0.00 | 0.00 | 0.00 | 68 | 1019.5 |
| 20260508060712 | 21 | 275 | 4.8 | 6.4 | 0.00 | 0.00 | 0.00 | 70 | 1019.5 |
| 20260508060210 | 22 | 331 | 3.2 | 6.4 | 0.00 | 0.00 | 0.00 | 67 | 1019.5 |
| 20260508055705 | 22 | 341 | 1.6 | 4.8 | 0.00 | 0.00 | 0.00 | 67 | 1019.6 |
| 20260508055202 | 21 | 295 | 0.0 | 4.8 | 0.00 | 0.00 | 0.00 | 70 | 1019.6 |
| 20260508054659 | 21 | 335 | 1.6 | 4.8 | 0.00 | 0.00 | 0.00 | 71 | 1019.7 |
| 20260508054156 | 20 | 261 | 3.2 | 6.4 | 0.00 | 0.00 | 0.00 | 72 | 1019.6 |
| 20260508053653 | 20 | 307 | 3.2 | 8.0 | 0.00 | 0.00 | 0.00 | 73 | 1019.6 |
| 20260508053151 | 20 | 276 | 1.6 | 8.0 | 0.00 | 0.00 | 0.00 | 74 | 1019.4 |
| 20260508052648 | 20 | 323 | 3.2 | 4.8 | 0.00 | 0.00 | 0.00 | 74 | 1019.3 |
| 20260508052145 | 19 | 310 | 3.2 | 4.8 | 0.00 | 0.00 | 0.00 | 75 | 1019.4 |
| 20260508051641 | 19 | 307 | 1.6 | 4.8 | 0.00 | 0.00 | 0.00 | 74 | 1019.6 |
| 20260508051136 | 18 | 286 | 4.8 | 4.8 | 0.00 | 0.00 | 0.00 | 74 | 1019.8 |
| 20260508050633 | 18 | 275 | 1.6 | 3.2 | 0.00 | 0.00 | 0.00 | 75 | 1019.7 |
| 20260508050131 | 18 | 224 | 4.8 | 6.4 | 0.00 | 0.00 | 0.00 | 74 | 1019.5 |
| 20260508045626 | 19 | 203 | 1.6 | 3.2 | 0.00 | 0.00 | 0.00 | 74 | 1019.7 |
| 20260508045125 | 18 | 142 | 3.2 | 3.2 | 0.00 | 0.00 | 0.00 | 75 | 1019.6 |
| 20260508044621 | 18 | 210 | 3.2 | 4.8 | 0.00 | 0.00 | 0.00 | 76 | 1019.6 |
| 20260508044117 | 18 | 202 | 4.8 | 4.8 | 0.00 | 0.00 | 0.00 | 77 | 1019.7 |
| 20260508043614 | 17 | 201 | 1.6 | 6.4 | 0.00 | 0.00 | 0.00 | 78 | 1019.7 |
| 20260508043112 | 17 | 221 | 0.0 | 6.4 | 0.00 | 0.00 | 0.00 | 79 | 1019.7 |
| 20260508042608 | 17 | 242 | 1.6 | 4.8 | 0.00 | 0.00 | 0.00 | 80 | 1019.8 |
| 20260508042106 | 17 | 204 | 4.8 | 4.8 | 0.00 | 0.00 | 0.00 | 80 | 1019.9 |
| 20260508041602 | 17 | 227 | 0.0 | 3.2 | 0.00 | 0.00 | 0.00 | 82 | 1019.7 |
| 20260508041058 | 16 | 238 | 1.6 | 1.6 | 0.00 | 0.00 | 0.00 | 82 | 1019.5 |
| 20260508040555 | 16 | 230 | 0.0 | 1.6 | 0.00 | 0.00 | 0.00 | 82 | 1019.6 |
| 20260508040053 | 16 | 200 | 1.6 | 3.2 | 0.00 | 0.00 | 0.00 | 83 | 1019.4 |
| 20260508035549 | 16 | 231 | 1.6 | 4.8 | 0.00 | 0.00 | 0.00 | 83 | 1019.1 |
| 20260508035047 | 15 | 205 | 3.2 | 4.8 | 0.00 | 0.00 | 0.00 | 83 | 1019.1 |
| 20260508034543 | 15 | 229 | 0.0 | 1.6 | 0.00 | 0.00 | 0.00 | 83 | 1019.1 |
| 20260508034041 | 15 | 205 | 3.2 | 3.2 | 0.00 | 0.00 | 0.00 | 83 | 1019.0 |
| 20260508033538 | 15 | 259 | 3.2 | 4.8 | 0.00 | 0.00 | 0.00 | 84 | 1018.8 |
| 20260508033037 | 15 | 246 | 1.6 | 3.2 | 0.00 | 0.00 | 0.00 | 84 | 1018.8 |
| 20260508032532 | 15 | 241 | 0.0 | 3.2 | 0.00 | 0.00 | 0.00 | 84 | 1018.6 |
| 20260508032031 | 15 | 269 | 0.0 | 1.6 | 0.00 | 0.00 | 0.00 | 85 | 1018.7 |
| 20260508031527 | 15 | 207 | 4.8 | 4.8 | 0.00 | 0.00 | 0.00 | 85 | 1018.7 |
| 20260508031022 | 15 | 229 | 3.2 | 3.2 | 0.00 | 0.00 | 0.00 | 85 | 1018.9 |
| 20260508030520 | 15 | 232 | 4.8 | 4.8 | 0.00 | 0.00 | 0.00 | 85 | 1018.7 |
| 20260508030018 | 14 | 245 | 3.2 | 3.2 | 0.00 | 0.00 | 0.00 | 85 | 1018.5 |
| 20260508025513 | 14 | 237 | 0.0 | 4.8 | 0.00 | 0.00 | 0.00 | 85 | 1018.6 |
| 20260508025011 | 14 | 237 | 3.2 | 4.8 | 0.00 | 0.00 | 0.00 | 85 | 1018.6 |
| 20260508024507 | 14 | 226 | 3.2 | 3.2 | 0.00 | 0.00 | 0.00 | 85 | 1018.5 |
| 20260508024003 | 14 | 296 | 0.0 | 1.6 | 0.00 | 0.00 | 0.00 | 85 | 1018.5 |
| 20260508023500 | 14 | 241 | 3.2 | 4.8 | 0.00 | 0.00 | 0.00 | 85 | 1018.6 |
| 20260508022958 | 14 | 218 | 3.2 | 4.8 | 0.00 | 0.00 | 0.00 | 85 | 1018.3 |
| 20260508022453 | 14 | 225 | 3.2 | 6.4 | 0.00 | 0.00 | 0.00 | 85 | 1018.3 |
| 20260508021950 | 14 | 222 | 3.2 | 8.0 | 0.00 | 0.00 | 0.00 | 85 | 1018.3 |
| 20260508021446 | 14 | 224 | 4.8 | 6.4 | 0.00 | 0.00 | 0.00 | 84 | 1018.3 |
| 20260508020942 | 14 | 255 | 3.2 | 4.8 | 0.00 | 0.00 | 0.00 | 85 | 1018.2 |
| 20260508020440 | 14 | 219 | 3.2 | 6.4 | 0.00 | 0.00 | 0.00 | 84 | 1018.2 |
| 20260508015937 | 15 | 207 | 4.8 | 6.4 | 0.00 | 0.00 | 0.00 | 84 | 1018.3 |
| 20260508015435 | 15 | 266 | 1.6 | 3.2 | 0.00 | 0.00 | 0.00 | 85 | 1018.0 |
| 20260508014931 | 15 | 242 | 3.2 | 4.8 | 0.00 | 0.00 | 0.00 | 85 | 1018.2 |
| 20260508014428 | 15 | 214 | 3.2 | 4.8 | 0.00 | 0.00 | 0.00 | 85 | 1018.3 |
| 20260508013924 | 15 | 231 | 3.2 | 4.8 | 0.00 | 0.00 | 0.00 | 85 | 1018.6 |
| 20260508013420 | 15 | 224 | 3.2 | 4.8 | 0.00 | 0.00 | 0.00 | 85 | 1018.6 |
| 20260508012918 | 14 | 216 | 3.2 | 4.8 | 0.00 | 0.00 | 0.00 | 85 | 1018.5 |
| 20260508012415 | 14 | 210 | 3.2 | 4.8 | 0.00 | 0.00 | 0.00 | 85 | 1018.3 |
| 20260508011912 | 14 | 306 | 0.0 | 3.2 | 0.00 | 0.00 | 0.00 | 85 | 1018.5 |
| 20260508011410 | 14 | 234 | 1.6 | 3.2 | 0.00 | 0.00 | 0.00 | 84 | 1018.7 |
| 20260508010907 | 14 | 233 | 1.6 | 3.2 | 0.00 | 0.00 | 0.00 | 84 | 1018.6 |
| 20260508010404 | 14 | 223 | 3.2 | 4.8 | 0.00 | 0.00 | 0.00 | 84 | 1018.6 |
| 20260508005901 | 14 | 214 | 3.2 | 4.8 | 0.00 | 0.00 | 0.00 | 84 | 1018.8 |
| 20260508005358 | 14 | 219 | 3.2 | 4.8 | 0.00 | 0.00 | 0.00 | 85 | 1018.9 |
| 20260508004854 | 15 | 208 | 3.2 | 6.4 | 0.00 | 0.00 | 0.00 | 85 | 1018.8 |
| 20260508004350 | 15 | 226 | 6.4 | 6.4 | 0.00 | 0.00 | 0.00 | 85 | 1018.9 |
| 20260508003847 | 14 | 251 | 3.2 | 4.8 | 0.00 | 0.00 | 0.00 | 84 | 1019.0 |
| 20260508003344 | 15 | 207 | 3.2 | 6.4 | 0.00 | 0.00 | 0.00 | 84 | 1019.1 |
| 20260508002841 | 15 | 247 | 1.6 | 4.8 | 0.00 | 0.00 | 0.00 | 84 | 1019.1 |
| 20260508002338 | 15 | 214 | 4.8 | 6.4 | 0.00 | 0.00 | 0.00 | 83 | 1019.0 |
| 20260508001834 | 15 | 200 | 3.2 | 6.4 | 0.00 | 0.00 | 0.00 | 83 | 1019.1 |
| 20260508001330 | 15 | 214 | 6.4 | 9.7 | 0.00 | 0.00 | 0.00 | 82 | 1019.1 |
| 20260508000827 | 15 | 239 | 3.2 | 6.4 | 0.00 | 0.00 | 0.00 | 82 | 1019.1 |
| 20260508000323 | 15 | 206 | 3.2 | 6.4 | 0.00 | 0.00 | 0.00 | 82 | 1019.3 |
| 20260507235820 | 15 | 228 | 3.2 | 4.8 | 0.00 | 0.00 | 0.00 | 83 | 1019.3 |
| 20260507235317 | 15 | 212 | 1.6 | 1.6 | 0.00 | 0.00 | 0.00 | 83 | 1019.2 |
| 20260507234814 | 15 | 219 | 3.2 | 4.8 | 0.00 | 0.00 | 0.00 | 83 | 1019.2 |
| 20260507234311 | 15 | 238 | 3.2 | 4.8 | 0.00 | 0.00 | 0.00 | 83 | 1019.2 |
| 20260507233807 | 15 | 283 | 1.6 | 3.2 | 0.00 | 0.00 | 0.00 | 82 | 1019.2 |
| 20260507233305 | 15 | 224 | 0.0 | 1.6 | 0.00 | 0.00 | 0.00 | 82 | 1019.3 |
| 20260507232803 | 15 | 225 | 3.2 | 3.2 | 0.00 | 0.00 | 0.00 | 82 | 1019.0 |
| 20260507232259 | 15 | 220 | 3.2 | 3.2 | 0.00 | 0.00 | 0.00 | 81 | 1019.0 |
| 20260507231756 | 15 | 211 | 3.2 | 4.8 | 0.00 | 0.00 | 0.00 | 81 | 1019.2 |
| 20260507231253 | 16 | 204 | 3.2 | 4.8 | 0.00 | 0.00 | 0.00 | 80 | 1019.4 |
| 20260507230749 | 16 | 205 | 3.2 | 6.4 | 0.00 | 0.00 | 0.00 | 80 | 1019.3 |
| 20260507230247 | 16 | 212 | 4.8 | 4.8 | 0.00 | 0.00 | 0.00 | 80 | 1019.4 |
| 20260507225746 | 16 | 206 | 3.2 | 4.8 | 0.00 | 0.00 | 0.00 | 80 | 1019.4 |
| 20260507225243 | 16 | 216 | 3.2 | 4.8 | 0.00 | 0.00 | 0.00 | 80 | 1019.4 |
| 20260507224738 | 16 | 201 | 3.2 | 4.8 | 0.00 | 0.00 | 0.00 | 80 | 1019.3 |
| 20260507224235 | 16 | 214 | 4.8 | 4.8 | 0.00 | 0.00 | 0.00 | 80 | 1019.5 |
| 20260507223732 | 16 | 215 | 1.6 | 3.2 | 0.00 | 0.00 | 0.00 | 80 | 1019.5 |
| 20260507223228 | 16 | 229 | 1.6 | 3.2 | 0.00 | 0.00 | 0.00 | 81 | 1019.6 |
| 20260507222725 | 16 | 219 | 3.2 | 4.8 | 0.00 | 0.00 | 0.00 | 81 | 1019.7 |
| 20260507222222 | 16 | 219 | 1.6 | 3.2 | 0.00 | 0.00 | 0.00 | 81 | 1019.7 |
| 20260507221719 | 16 | 283 | 0.0 | 6.4 | 0.00 | 0.00 | 0.00 | 81 | 1019.9 |
| 20260507221215 | 16 | 224 | 3.2 | 4.8 | 0.00 | 0.00 | 0.00 | 81 | 1019.8 |
| 20260507220711 | 16 | 227 | 3.2 | 3.2 | 0.00 | 0.00 | 0.00 | 81 | 1020.0 |
| 20260507220210 | 16 | 221 | 3.2 | 4.8 | 0.00 | 0.00 | 0.00 | 81 | 1019.9 |
| 20260507215705 | 16 | 256 | 3.2 | 3.2 | 0.00 | 0.00 | 0.00 | 82 | 1019.9 |
| 20260507215203 | 16 | 218 | 4.8 | 6.4 | 0.00 | 0.00 | 0.00 | 82 | 1019.7 |
| 20260507214700 | 16 | 218 | 3.2 | 4.8 | 0.00 | 0.00 | 0.00 | 83 | 1019.7 |
| 20260507214156 | 16 | 241 | 3.2 | 4.8 | 0.00 | 0.00 | 0.00 | 83 | 1019.8 |
| 20260507213652 | 16 | 250 | 1.6 | 4.8 | 0.00 | 0.00 | 0.00 | 83 | 1019.9 |
| 20260507213150 | 16 | 238 | 4.8 | 6.4 | 0.00 | 0.00 | 0.00 | 83 | 1019.8 |
| 20260507212646 | 16 | 232 | 3.2 | 3.2 | 0.00 | 0.00 | 0.00 | 83 | 1019.6 |
| 20260507212143 | 16 | 250 | 3.2 | 6.4 | 0.00 | 0.00 | 0.00 | 83 | 1019.5 |
| 20260507211640 | 17 | 225 | 1.6 | 1.6 | 0.00 | 0.00 | 0.00 | 84 | 1019.6 |
| 20260507211135 | 17 | 269 | 0.0 | 0.0 | 0.00 | 0.00 | 0.00 | 84 | 1019.4 |
| 20260507210633 | 16 | 272 | 1.6 | 3.2 | 0.00 | 0.00 | 0.00 | 84 | 1019.6 |
| 20260507210130 | 16 | 315 | 0.0 | 1.6 | 0.00 | 0.00 | 0.00 | 84 | 1019.4 |
| 20260507205626 | 16 | 317 | 1.6 | 1.6 | 0.00 | 0.00 | 0.00 | 83 | 1019.4 |
| 20260507205123 | 16 | 282 | 1.6 | 3.2 | 0.00 | 0.00 | 0.00 | 83 | 1019.4 |
| 20260507204619 | 16 | 304 | 0.0 | 3.2 | 0.00 | 0.00 | 0.00 | 83 | 1019.3 |
| 20260507204117 | 16 | 269 | 0.0 | 3.2 | 0.00 | 0.00 | 0.00 | 83 | 1019.2 |
| 20260507203615 | 17 | 315 | 3.2 | 3.2 | 0.00 | 0.00 | 0.00 | 82 | 1019.1 |
| 20260507203112 | 17 | 304 | 0.0 | 3.2 | 0.00 | 0.00 | 0.00 | 82 | 1019.1 |
| 20260507202607 | 17 | 287 | 1.6 | 3.2 | 0.00 | 0.00 | 0.00 | 82 | 1019.1 |
| 20260507202104 | 17 | 293 | 3.2 | 4.8 | 0.00 | 0.00 | 0.00 | 82 | 1018.9 |
| 20260507201559 | 17 | 291 | 3.2 | 3.2 | 0.00 | 0.00 | 0.00 | 82 | 1019.1 |
| 20260507201056 | 17 | 282 | 3.2 | 3.2 | 0.00 | 0.00 | 0.00 | 81 | 1018.9 |
| 20260507200551 | 17 | 278 | 3.2 | 3.2 | 0.00 | 0.00 | 0.00 | 81 | 1018.8 |
| 20260507200048 | 17 | 321 | 0.0 | 3.2 | 0.00 | 0.00 | 0.00 | 81 | 1018.9 |
| 20260507195545 | 17 | 310 | 3.2 | 4.8 | 0.00 | 0.00 | 0.00 | 80 | 1018.9 |
| 20260507195042 | 17 | 308 | 3.2 | 3.2 | 0.00 | 0.00 | 0.00 | 80 | 1018.8 |
| 20260507194538 | 17 | 295 | 3.2 | 4.8 | 0.00 | 0.00 | 0.00 | 80 | 1018.8 |
| 20260507194035 | 17 | 307 | 1.6 | 3.2 | 0.00 | 0.00 | 0.00 | 80 | 1018.8 |
| 20260507193532 | 17 | 306 | 0.0 | 4.8 | 0.00 | 0.00 | 0.00 | 79 | 1018.7 |
| 20260507193029 | 17 | 326 | 0.0 | 3.2 | 0.00 | 0.00 | 0.00 | 79 | 1018.7 |
| 20260507192525 | 17 | 285 | 0.0 | 3.2 | 0.00 | 0.00 | 0.00 | 79 | 1018.7 |
| 20260507192022 | 17 | 285 | 3.2 | 3.2 | 0.00 | 0.00 | 0.00 | 78 | 1018.7 |
| 20260507191517 | 17 | 286 | 0.0 | 6.4 | 0.00 | 0.00 | 0.00 | 78 | 1018.6 |
| 20260507191014 | 17 | 312 | 3.2 | 6.4 | 0.00 | 0.00 | 0.00 | 78 | 1018.8 |
| 20260507190512 | 17 | 285 | 1.6 | 3.2 | 0.00 | 0.00 | 0.00 | 77 | 1018.9 |
| 20260507190011 | 17 | 281 | 3.2 | 3.2 | 0.00 | 0.00 | 0.00 | 77 | 1019.0 |
| 20260507185508 | 17 | 280 | 3.2 | 4.8 | 0.00 | 0.00 | 0.00 | 77 | 1018.9 |
| 20260507185004 | 17 | 302 | 1.6 | 4.8 | 0.00 | 0.00 | 0.00 | 76 | 1018.9 |
| 20260507184503 | 17 | 321 | 1.6 | 4.8 | 0.00 | 0.00 | 0.00 | 76 | 1018.9 |
| 20260507184001 | 17 | 314 | 1.6 | 6.4 | 0.00 | 0.00 | 0.00 | 75 | 1019.0 |
| 20260507183456 | 17 | 328 | 3.2 | 6.4 | 0.00 | 0.00 | 0.00 | 75 | 1018.9 |
| 20260507182954 | 17 | 317 | 4.8 | 6.4 | 0.00 | 0.00 | 0.00 | 75 | 1019.0 |
| 20260507182449 | 17 | 321 | 3.2 | 6.4 | 0.00 | 0.00 | 0.00 | 75 | 1018.9 |
| 20260507181945 | 17 | 317 | 0.0 | 3.2 | 0.00 | 0.00 | 0.00 | 74 | 1018.9 |
| 20260507181442 | 18 | 322 | 3.2 | 6.4 | 0.00 | 0.00 | 0.00 | 74 | 1018.9 |
| 20260507180939 | 18 | 321 | 1.6 | 4.8 | 0.00 | 0.00 | 0.00 | 74 | 1018.9 |
| 20260507180436 | 18 | 290 | 6.4 | 6.4 | 0.00 | 0.00 | 0.00 | 73 | 1018.9 |
| 20260507175932 | 18 | 317 | 3.2 | 4.8 | 0.00 | 0.00 | 0.00 | 73 | 1018.7 |
| 20260507175428 | 18 | 327 | 3.2 | 6.4 | 0.00 | 0.00 | 0.00 | 73 | 1018.8 |
| 20260507174926 | 18 | 342 | 3.2 | 3.2 | 0.00 | 0.00 | 0.00 | 72 | 1018.5 |
| 20260507174423 | 18 | 331 | 3.2 | 3.2 | 0.00 | 0.00 | 0.00 | 72 | 1018.6 |
| 20260507173921 | 18 | 313 | 0.0 | 3.2 | 0.00 | 0.00 | 0.00 | 71 | 1018.7 |
| 20260507173418 | 18 | 329 | 3.2 | 8.0 | 0.00 | 0.00 | 0.00 | 71 | 1018.6 |
| 20260507172914 | 18 | 304 | 4.8 | 4.8 | 0.00 | 0.00 | 0.00 | 70 | 1018.7 |
| 20260507172411 | 18 | 291 | 3.2 | 3.2 | 0.00 | 0.00 | 0.00 | 69 | 1018.5 |
| 20260507171907 | 18 | 304 | 8.0 | 8.0 | 0.00 | 0.00 | 0.00 | 69 | 1018.3 |
| 20260507171403 | 18 | 328 | 6.4 | 9.7 | 0.00 | 0.00 | 0.00 | 68 | 1018.5 |
| 20260507170901 | 18 | 300 | 3.2 | 6.4 | 0.00 | 0.00 | 0.00 | 68 | 1018.2 |
| 20260507170357 | 18 | 309 | 3.2 | 4.8 | 0.00 | 0.00 | 0.00 | 67 | 1018.2 |
| 20260507165853 | 18 | 323 | 3.2 | 4.8 | 0.00 | 0.00 | 0.00 | 67 | 1018.2 |
| 20260507165349 | 18 | 300 | 4.8 | 6.4 | 0.00 | 0.00 | 0.00 | 66 | 1018.0 |
| 20260507164845 | 18 | 327 | 4.8 | 9.7 | 0.00 | 0.00 | 0.00 | 66 | 1018.1 |
| 20260507164343 | 18 | 339 | 1.6 | 6.4 | 0.00 | 0.00 | 0.00 | 64 | 1018.1 |
| 20260507163840 | 18 | 306 | 6.4 | 8.0 | 0.00 | 0.00 | 0.00 | 64 | 1018.1 |
| 20260507163337 | 19 | 312 | 3.2 | 6.4 | 0.00 | 0.00 | 0.00 | 62 | 1018.0 |
| 20260507162834 | 19 | 322 | 3.2 | 8.0 | 0.00 | 0.00 | 0.00 | 62 | 1017.9 |
| 20260507162329 | 19 | 331 | 3.2 | 8.0 | 0.00 | 0.00 | 0.00 | 65 | 1017.9 |
| 20260507161826 | 19 | 303 | 1.6 | 4.8 | 0.00 | 0.00 | 0.00 | 65 | 1017.9 |
| 20260507161323 | 19 | 309 | 4.8 | 8.0 | 0.00 | 0.00 | 0.00 | 65 | 1017.8 |
| 20260507160820 | 19 | 287 | 1.6 | 9.7 | 0.00 | 0.00 | 0.00 | 65 | 1017.8 |
| 20260507160315 | 20 | 304 | 1.6 | 12.9 | 0.00 | 0.00 | 0.00 | 65 | 1017.8 |
| 20260507155812 | 20 | 317 | 3.2 | 11.3 | 0.00 | 0.00 | 0.00 | 64 | 1017.9 |
| 20260507155308 | 20 | 308 | 4.8 | 8.0 | 0.00 | 0.00 | 0.00 | 64 | 1017.7 |
| 20260507154804 | 20 | 326 | 8.0 | 8.0 | 0.00 | 0.00 | 0.00 | 64 | 1017.8 |
| 20260507154302 | 20 | 300 | 3.2 | 8.0 | 0.00 | 0.00 | 0.00 | 64 | 1017.9 |
| 20260507153758 | 20 | 282 | 4.8 | 14.5 | 0.00 | 0.00 | 0.00 | 65 | 1018.0 |
| 20260507153255 | 20 | 322 | 4.8 | 8.0 | 0.00 | 0.00 | 0.00 | 65 | 1017.8 |
| 20260507152751 | 20 | 324 | 3.2 | 9.7 | 0.00 | 0.00 | 0.00 | 63 | 1017.9 |
| 20260507152248 | 20 | 336 | 6.4 | 8.0 | 0.00 | 0.00 | 0.00 | 63 | 1017.9 |
| 20260507151743 | 20 | 283 | 4.8 | 11.3 | 0.00 | 0.00 | 0.00 | 65 | 1017.7 |
| 20260507151240 | 20 | 324 | 4.8 | 16.1 | 0.00 | 0.00 | 0.00 | 64 | 1017.9 |
| 20260507150737 | 20 | 325 | 3.2 | 14.5 | 0.00 | 0.00 | 0.00 | 62 | 1017.8 |
| 20260507150234 | 20 | 302 | 8.0 | 12.9 | 0.00 | 0.00 | 0.00 | 62 | 1018.1 |
| 20260507145730 | 20 | 309 | 6.4 | 9.7 | 0.00 | 0.00 | 0.00 | 63 | 1017.9 |
| 20260507145226 | 21 | 315 | 6.4 | 9.7 | 0.00 | 0.00 | 0.00 | 62 | 1017.7 |
| 20260507144724 | 21 | 332 | 4.8 | 9.7 | 0.00 | 0.00 | 0.00 | 62 | 1017.9 |
| 20260507144221 | 21 | 341 | 9.7 | 9.7 | 0.00 | 0.00 | 0.00 | 62 | 1017.8 |
| 20260507143718 | 21 | 296 | 0.0 | 9.7 | 0.00 | 0.00 | 0.00 | 64 | 1017.8 |
| 20260507143215 | 21 | 308 | 14.5 | 17.7 | 0.00 | 0.00 | 0.00 | 63 | 1017.7 |
| 20260507142711 | 21 | 302 | 4.8 | 12.9 | 0.00 | 0.00 | 0.00 | 61 | 1017.9 |
| 20260507142208 | 21 | 318 | 6.4 | 8.0 | 0.00 | 0.00 | 0.00 | 61 | 1017.8 |